Home > Weather > Sibiu > Past weeks

Flag for Romania Past Weather in Sibiu, Romania — Yesterday and Last 2 Weeks

Now
50 °F

Clear.


Feels Like: 50 °F
Forecast: 55 / 81 °F
Wind: 1 mph from North

Location: Sibiu Airport

Current Time: May 28, 2016 at 5:22:30 AM

Latest Report: May 28, 2016 at 5:00 AM


Visibility: 10 mi

Pressure: 30.07 "Hg

Humidity: 100%

Dew Point: 50 °F

Location of SibiuLocation

Past Weather in Sibiu — Graph

°F

Sibiu Temperature Yesterday

Maximum temperature yesterday: 75 °F (at 5:30 PM)
Minimum temperature yesterday: 46 °F (at 5:30 AM)
Average temperature yesterday: 63 °F

High & Low Weather Summary for the Past Weeks

 TemperatureHumidityPressure
High79 °F (May 23, 3:00 PM)100% (May 13, 4:00 AM)30.12 "Hg (May 13, 4:00 AM)
Low39 °F (May 19, 4:00 AM)27% (May 22, 6:00 PM)29.50 "Hg (May 13, 4:00 AM)
Average58 °F71%29.88 "Hg
* Reported May 13 4:00 AM — May 28 4:00 AM, Sibiu, Weather by CustomWeather, © 2016

Note: Actual official high and low records may vary slightly from our data, if they occured in-between our weather recording intervals... More about our weather records

Advertising

Sibiu Weather History for the Previous 24 Hours

Scroll right to see more
 ConditionsComfort  
Time TempWeatherWind HumidityBarometerVisibility
4:00 AM
Sat, May 28
50 °FClear.1 mph94%30.07 "Hg10 mi
3:00 AM52 °FClear.1 mph94%30.07 "Hg10 mi
2:00 AM52 °FClear.2 mph100%30.07 "Hg10 mi
1:00 AM54 °FClear.2 mph94%30.07 "Hg10 mi
12:00 AM55 °FClear.3 mph88%30.07 "Hg10 mi
11:00 PM
Fri, May 27
57 °FClear.2 mph88%30.07 "Hg10 mi
10:00 PM59 °FSunny.2 mph82%30.07 "Hg10 mi
9:00 PM63 °FSunny.5 mph73%30.07 "Hg10 mi
8:30 PM64 °FSunny.8 mph68%30.07 "Hg10 mi
8:00 PM70 °FPassing clouds.5 mph57%30.07 "HgN/A
7:30 PM72 °FPassing clouds.8 mph53%30.07 "HgN/A
7:00 PM73 °FPassing clouds.8 mph47%30.04 "HgN/A
6:30 PM73 °FPassing clouds.6 mph41%30.04 "HgN/A
6:00 PM75 °FPassing clouds.8 mph39%30.04 "HgN/A
5:30 PM75 °FPassing clouds.6 mph39%30.04 "HgN/A
5:00 PM73 °FPassing clouds.6 mph41%30.04 "HgN/A
4:30 PM73 °FPassing clouds.3 mph44%30.04 "HgN/A
4:00 PM73 °FPassing clouds.5 mph41%30.04 "HgN/A
3:30 PM73 °FScattered clouds.2 mph44%30.04 "HgN/A
3:00 PM73 °FScattered clouds.7 mph41%30.07 "HgN/A
2:30 PM73 °FScattered clouds.7 mph44%30.07 "HgN/A
2:00 PM72 °FScattered clouds.7 mph47%30.07 "HgN/A
1:30 PM72 °FScattered clouds.6 mph53%30.07 "HgN/A
1:00 PM70 °FScattered clouds.7 mph50%30.07 "HgN/A
12:30 PM70 °FScattered clouds.5 mph57%30.07 "HgN/A
12:00 PM68 °FPassing clouds.6 mph60%30.07 "HgN/A
11:30 AM68 °FPassing clouds.5 mph64%30.07 "HgN/A
11:00 AM66 °FPassing clouds.5 mph68%30.07 "HgN/A
10:30 AM64 °FPassing clouds.6 mph68%30.07 "HgN/A
10:00 AM64 °FPassing clouds.2 mph68%30.07 "HgN/A
9:30 AM64 °FSunny.2 mph68%30.07 "Hg10 mi
9:00 AM61 °FSunny.2 mph77%30.07 "Hg10 mi
8:30 AM59 °FSunny.1 mph82%30.04 "Hg10 mi
8:00 AM57 °FLight fog.1 mph82%30.04 "HgN/A
7:30 AM54 °FLight fog.3 mph94%30.04 "HgN/A
7:00 AM48 °FFog.2 mph100%30.04 "Hg4 mi
6:30 AM46 °FRain. Fog.2 mph100%30.04 "Hg2 mi
6:00 AM46 °FRain. Fog.3 mph100%30.01 "Hg3 mi
5:30 AM46 °FRain. Fog.1 mph100%30.01 "Hg3 mi
Weather by CustomWeather, © 2016

See weather overviewHow to use our weather pages